User: anonymous   Login
Location: Unspecified
(0.0000°N, 0.0000°E)
Time: 06:40:15
(UTC+00:00)
Language:

ONEWEB-0229 - Orbit

View from above orbital plane
View from above orbital plane
View from above satellite
View from above satellite

Ground track
Ground track

The orbit is defined by the following mean orbital elements,

1 48779U          26145.32060131 +.00000000 +00000-0 +42886-3 0 00003
2 48779  87.8998 263.7451 0001888  95.8140 264.3206 13.15546948    05
Epoch (UTC): 25 May 2026 07:41:39
Eccentricity: 0.0001888
inclination: 87.8998°
perigee height: 1200 km
apogee height: 1203 km
right ascension of ascending node: 263.7451°
argument of perigee: 95.8140°
revolutions per day: 13.15546948
mean anomaly at epoch: 264.3206°

The dashed part of the orbit path shows where the satellite is in the earth's shadow,  

DLR